Regional Weather Roundup
Issued by NWS

Home | Current Version | Previous Version | Text Only | Print | Product List | Glossary On
Versions: 1 2 3 4 5 6 7 8 9 10 11 12 13 14 15 16 17 18 19 20 21 22 23 24 25 26 27 28 29 30 31 32 33 34 35 36 37 38 39 40 41 42 43 44 45 46 47 48 49 50
000
ASUS43 KOAX 231502
RWRNE

WEATHER ROUNDUP FOR NEBRASKA
NATIONAL WEATHER SERVICE OMAHA NE
1000 AM CDT SAT MAY 23 2015

NOTES: SATELLITE DATA IS BEING USED TO AUGMENT CLOUD COVER ABOVE
       12000 FEET.
       "FAIR" INDICATES FEW OR NO CLOUDS BELOW 12,000 FEET WITH NO
       SIGNIFICANT WEATHER AND/OR OBSTRUCTIONS TO VISIBILITY.

  * THESE STATIONS DO NOT REPORT WEATHER SUCH AS RAIN...SNOW OR FOG.

NEZ001>004-019>022-054>056-231600-
NEBRASKA PANHANDLE

CITY           SKY/WX    TMP DP  RH WIND       PRES   REMARKS
SCOTTSBLUFF    CLOUDY    50  50 100 E8        30.03S
ALLIANCE       CLOUDY    52  51  97 SE12      30.03S
CHADRON        CLOUDY    53  47  79 SE10      30.04S
SIDNEY         FOG       51  50  96 SE10      30.04S VSB 1
$$

NEZ057>060-069>072-079>082-231600-
SOUTHWEST NEBRASKA

CITY           SKY/WX    TMP DP  RH WIND       PRES   REMARKS
NORTH PLATTE   CLOUDY    54  52  93 SE9       30.08R
IMPERIAL       CLOUDY    54  52  93 SE14      30.03S
LEXINGTON      CLOUDY    55  54  97 SE12      30.10R FOG
MCCOOK         CLOUDY    54  53  97 S10       30.07R
$$

NEZ005>010-023>029-035>040-094-231600-
NORTH CENTRAL NEBRASKA

CITY           SKY/WX    TMP DP  RH WIND       PRES   REMARKS
VALENTINE      CLOUDY    54  53  97 S6        30.10F
AINSWORTH      CLOUDY    55  55 100 S8        30.11S
BROKEN BOW       N/A     54  53  97 SE13      30.11S
ORD            CLOUDY    53  51  93 SE12      30.12F
$$

NEZ041-046>049-061>064-073>077-083>087-231600-
SOUTH CENTRAL NEBRASKA

CITY           SKY/WX    TMP DP  RH WIND       PRES   REMARKS
GRAND ISLAND   CLOUDY    54  52  93 SE9       30.16R
HASTINGS       CLOUDY    54  52  93 S10       30.14R
KEARNEY *      CLOUDY    54  52  94 SE14      30.13R
$$

NEZ011>018-030>034-042>045-231600-
NORTHEAST NEBRASKA

CITY           SKY/WX    TMP DP  RH WIND       PRES   REMARKS
NORFOLK        CLOUDY    58  52  80 SE13      30.17R
BLAIR          CLOUDY    60  52  75 SE9       30.19S
COLUMBUS *     CLOUDY    55  48  76 SE8       30.20S
FREMONT        CLOUDY    60  53  78 SE12      30.19S
TEKAMAH        CLOUDY    63  53  70 SE10      30.19R
$$

NEZ050>053-065>068-078-088>093-231600-
SOUTHEAST NEBRASKA

CITY           SKY/WX    TMP DP  RH WIND       PRES   REMARKS
LINCOLN        CLOUDY    57  55  93 SE10      30.18F FOG
OMAHA EPPLEY   CLOUDY    62  53  72 S13       30.20S
FALLS CITY     CLOUDY    60  56  86 SE12      30.21R
NEBRASKA CITY  CLOUDY    56  56  99 SE9       30.20F FOG
PLATTSMOUTH    CLOUDY    57  54  92 SE9       30.20F FOG
$$

NEZ044-045-051>053-067-231600-
OMAHA AREA

CITY           SKY/WX    TMP DP  RH WIND       PRES   REMARKS
OMAHA EPPLEY   CLOUDY    62  53  72 S13       30.20S
BLAIR          CLOUDY    60  52  75 SE9       30.19S
FREMONT        CLOUDY    60  53  78 SE12      30.19S
OFFUTT AFB     CLOUDY    59  55  85 SE12      30.20S
PLATTSMOUTH    CLOUDY    57  54  92 SE9       30.20F FOG
WAHOO          CLOUDY    58  54  85 SE12      30.19S
$$


USA.gov is the U.S. government's official web portal to all federal, state and local government web resources and services.